Regional Weather Roundup
Issued by NWS

Home | Current Version | Previous Version | Graphics & Text | Print | Product List | Glossary On
Versions: 1 2 3 4 5 6 7 8 9 10 11 12 13 14 15 16 17 18 19 20 21 22 23 24 25 26 27 28 29 30 31 32 33 34 35 36 37 38 39 40 41 42 43 44 45 46 47 48 49 50
000
ASUS43 KLMK 241402
RWRKY
KENTUCKY REGIONAL WEATHER ROUNDUP
NATIONAL WEATHER SERVICE LOUISVILLE KY
900 AM EST WED DEC 24 2014

NOTE "FAIR" INDICATES FEW OR NO CLOUDS BELOW 12,000 FEET
WITH NO SIGNIFICANT WEATHER AND/OR OBSTRUCTIONS TO VISIBILITY.

KYZ001>023-026-027-061>063-070>075-241500-
WESTERN AND SOUTH CENTRAL KENTUCKY

CITY           SKY/WX    TMP DP  RH WIND       PRES   REMARKS
PADUCAH        CLOUDY    41  39  93 NW9G22    29.66S
HENDERSON      CLOUDY    43  39  87 NW12      29.62R
OWENSBORO      CLOUDY    44  44 100 NW7       29.57S FOG
HOPKINSVILLE   CLOUDY    45  45 100 NW8       29.60R
BOWLING GREEN  CLOUDY    55  53  93 S9        29.55F FOG
GLASGOW        NOT AVBL
$$

KYZ024-025-028>034-038-045-046-053-241500-
NORTH CENTRAL KENTUCKY

CITY           SKY/WX    TMP DP  RH WIND       PRES   REMARKS
LOUISVILLE/SDF LGT RAIN  54  52  93 SE6       29.52F FOG
LOUISVILLE/LOU CLOUDY    54  53  97 SE5       29.53F FOG
FORT KNOX      CLOUDY    54  53  97 S13       29.52F FOG
$$

KYZ035>037-039>044-047>052-055>060-089>105-241500-
NORTHEAST KENTUCKY

CITY           SKY/WX    TMP DP  RH WIND       PRES   REMARKS
LEXINGTON      CLOUDY    54  53  97 S7        29.55F
COVINGTON      CLOUDY    54  50  86 SE7       29.53F
FRANKFORT      CLOUDY    53  52  96 SE3       29.53F
$$

KYZ054-064>069-076>088-106>120-241500-
SOUTHEAST KENTUCKY

CITY           SKY/WX    TMP DP  RH WIND       PRES   REMARKS
JACKSON        CLOUDY    57  52  83 VRB5      29.60F
LONDON         CLOUDY    58  32  37 S9        29.61R
SOMERSET       NOT AVBL
MIDDLESBORO    NOT AVBL
MONTICELLO     CLOUDY    60  55  83 S15G22    29.59F
$$



USA.gov is the U.S. government's official web portal to all federal, state and local government web resources and services.